MV Nord Discovery — 3EGP — position and weather

sailwx.info

Track history (hours):
 
Tides and Currents Weather Stations Pressure Air Temp Water Temp Dewpoint Dewpoint Depression Visibility Wind Speed Wind Dir Waves Ship Positions

MV Nord Discovery

Last reported at 2014-Aug-30 13:33 UTC. Time now 2014-Aug-30 14:33 UTC.
Position S 29°43' E 031°18'.

Length 183 m; draft 11 m.

Type: Cargo ship. MMSI: 354855000.

Date/timePositionNaut miles runAvg speedWind from/ knotsBaromVisibWave heightAir tempDewpointWater temp
2014-Aug-30 13:33S 29°43' E 031°18'1 0.8
2014-Aug-30 12:33S 29°42' E 031°18'0 0.5
2014-Aug-30 11:33S 29°42' E 031°18'1 0.6
2014-Aug-30 10:33S 29°41' E 031°18'1 1.1
2014-Aug-30 09:33S 29°40' E 031°18'2 2.4
2014-Aug-30 08:33S 29°42' E 031°17'8 7.5
2014-Aug-30 07:33S 29°50' E 031°15'8 7.6
2014-Aug-30 06:33S 29°56' E 031°10'9 8.7
2014-Aug-30 05:33S 30°03' E 031°04'1111.2
2014-Aug-30 04:32S 30°13' E 030°58'30011.1
2014-Aug-29 01:30S 33°51' E 026°54'24111.4
2014-Aug-28 04:24S 34°40' E 022°09'6610.9
2014-Aug-27 22:20S 34°51' E 020°49'2110.9
2014-Aug-27 20:26S 34°54' E 020°25'3110.7
2014-Aug-27 17:31S 34°57' E 019°47'2310.2
2014-Aug-27 15:14S 34°50' E 019°20'1810.4
2014-Aug-27 13:30S 34°42' E 018°60'1010.8
2014-Aug-27 12:33S 34°38' E 018°48'1110.8
2014-Aug-27 11:33S 34°34' E 018°36'1310.7
2014-Aug-27 10:23S 34°29' E 018°22'13 9.9
2014-Aug-27 09:04S 34°20' E 018°11'5 9.8
2014-Aug-27 08:31S 34°15' E 018°08'1010.0
2014-Aug-27 07:32S 34°07' E 018°01'  
Track history (hours):
 
Tides and Currents Weather Stations Pressure Air Temp Water Temp Dewpoint Dewpoint Depression Visibility Wind Speed Wind Dir Waves Ship Positions

MV Nord Discovery

Last reported at 2014-Aug-30 13:33 UTC. Time now 2014-Aug-30 14:33 UTC.
Position S 29°43' E 031°18'.

Length 183 m; draft 11 m.

Type: Cargo ship. MMSI: 354855000.

Date/timePositionNaut miles runAvg speedWind from/ knotsBaromVisibWave heightAir tempDewpointWater temp
2014-Aug-30 13:33S 29°43' E 031°18'1 0.8
2014-Aug-30 12:33S 29°42' E 031°18'0 0.5
2014-Aug-30 11:33S 29°42' E 031°18'1 0.6
2014-Aug-30 10:33S 29°41' E 031°18'1 1.1
2014-Aug-30 09:33S 29°40' E 031°18'2 2.4
2014-Aug-30 08:33S 29°42' E 031°17'8 7.5
2014-Aug-30 07:33S 29°50' E 031°15'8 7.6
2014-Aug-30 06:33S 29°56' E 031°10'9 8.7
2014-Aug-30 05:33S 30°03' E 031°04'1111.2
2014-Aug-30 04:32S 30°13' E 030°58'30011.1
2014-Aug-29 01:30S 33°51' E 026°54'24111.4
2014-Aug-28 04:24S 34°40' E 022°09'6610.9
2014-Aug-27 22:20S 34°51' E 020°49'2110.9
2014-Aug-27 20:26S 34°54' E 020°25'3110.7
2014-Aug-27 17:31S 34°57' E 019°47'2310.2
2014-Aug-27 15:14S 34°50' E 019°20'1810.4
2014-Aug-27 13:30S 34°42' E 018°60'1010.8
2014-Aug-27 12:33S 34°38' E 018°48'1110.8
2014-Aug-27 11:33S 34°34' E 018°36'1310.7
2014-Aug-27 10:23S 34°29' E 018°22'13 9.9
2014-Aug-27 09:04S 34°20' E 018°11'5 9.8
2014-Aug-27 08:31S 34°15' E 018°08'1010.0
2014-Aug-27 07:32S 34°07' E 018°01'  

Dump ship's entire track history